DAWOW SAVC-SCEL

Flight info

Callsign DAWOW
Flight time 1h 46m
Altitude 38000
Route PUBLO2G PUBLO UT105 NEU UZ122 ANKON UT122 EROLO EROLO8A
Aircraft E190/M-SDE1E2E3FGHIJ3J4J7P2RWXY/LB1D1G1

Departure

Time 2026-05-09 07:05
Airport General Enrique Mosconi International Airport (SAVC)

Arrival

Time 2026-05-09 08:52
Airport Comodoro Arturo Merino Benítez International Airport (SCEL)
Time Latitude Longitude Altitude Speed Heading
2026-05-09 06:53 -45.79058 -67.46451 159 ft 0 kts 17°
2026-05-09 06:57 -45.79049 -67.46448 159 ft 3 kts 11°
2026-05-09 06:57 -45.79015 -67.46450 159 ft 6 kts 339°
2026-05-09 06:58 -45.78980 -67.46490 159 ft 6 kts 306°
2026-05-09 06:58 -45.78967 -67.46545 161 ft 5 kts 272°
2026-05-09 06:58 -45.78968 -67.46587 162 ft 3 kts 267°
2026-05-09 06:58 -45.78970 -67.46641 164 ft 6 kts 266°
2026-05-09 06:59 -45.78973 -67.46701 166 ft 5 kts 267°
2026-05-09 06:59 -45.78968 -67.46777 167 ft 8 kts 299°
2026-05-09 06:59 -45.78916 -67.46799 168 ft 8 kts 355°
2026-05-09 06:59 -45.78851 -67.46804 168 ft 10 kts 357°
2026-05-09 07:00 -45.78783 -67.46800 167 ft 7 kts 27°
2026-05-09 07:00 -45.78756 -67.46707 163 ft 11 kts 78°
2026-05-09 07:00 -45.78742 -67.46595 159 ft 11 kts 79°
2026-05-09 07:00 -45.78724 -67.46457 155 ft 16 kts 78°
2026-05-09 07:01 -45.78699 -67.46283 149 ft 19 kts 80°
2026-05-09 07:01 -45.78679 -67.46129 145 ft 15 kts 78°
2026-05-09 07:01 -45.78659 -67.45982 141 ft 16 kts 79°
2026-05-09 07:01 -45.78635 -67.45806 136 ft 18 kts 79°
2026-05-09 07:02 -45.78611 -67.45636 131 ft 18 kts 79°
2026-05-09 07:02 -45.78589 -67.45465 126 ft 13 kts 80°
2026-05-09 07:02 -45.78568 -67.45314 122 ft 17 kts 79°
2026-05-09 07:02 -45.78542 -67.45122 118 ft 21 kts 78°
2026-05-09 07:03 -45.78526 -67.45000 116 ft 5 kts 78°
2026-05-09 07:03 -45.78516 -67.44933 115 ft 8 kts 72°
2026-05-09 07:03 -45.78469 -67.44869 113 ft 10 kts 16°
2026-05-09 07:03 -45.78395 -67.44840 111 ft 9 kts 11°
2026-05-09 07:04 -45.78343 -67.44840 111 ft 6 kts 341°
2026-05-09 07:04 -45.78313 -67.44889 112 ft 6 kts 273°
2026-05-09 07:04 -45.78319 -67.44945 112 ft 0 kts 258°
2026-05-09 07:04 -45.78319 -67.44947 112 ft 0 kts 258°
2026-05-09 07:05 -45.78326 -67.44994 113 ft 26 kts 257°
2026-05-09 07:05 -45.78415 -67.45655 131 ft 105 kts 256°
2026-05-09 07:05 -45.78579 -67.46960 237 ft 154 kts 257°
2026-05-09 07:05 -45.78823 -67.48490 967 ft 161 kts 251°
2026-05-09 07:06 -45.79136 -67.50101 1613 ft 182 kts 248°
2026-05-09 07:06 -45.79741 -67.51775 2370 ft 202 kts 237°
2026-05-09 07:06 -45.80424 -67.53587 3328 ft 218 kts 239°
2026-05-09 07:06 -45.81120 -67.55534 4491 ft 226 kts 239°
2026-05-09 07:07 -45.81779 -67.57538 5743 ft 229 kts 249°
2026-05-09 07:07 -45.81724 -67.59813 6796 ft 246 kts 287°
2026-05-09 07:07 -45.80660 -67.61794 7719 ft 264 kts 315°
2026-05-09 07:07 -45.79300 -67.63521 8788 ft 266 kts 314°
2026-05-09 07:08 -45.77954 -67.65313 9804 ft 269 kts 314°
2026-05-09 07:08 -45.76593 -67.67168 10725 ft 274 kts 314°
2026-05-09 07:08 -45.75207 -67.69077 11610 ft 280 kts 313°
2026-05-09 07:08 -45.73813 -67.71009 12442 ft 287 kts 312°
2026-05-09 07:09 -45.72272 -67.72913 13244 ft 298 kts 330°
2026-05-09 07:09 -45.70261 -67.73746 13678 ft 321 kts 359°
2026-05-09 07:09 -45.67925 -67.73667 13848 ft 351 kts
2026-05-09 07:09 -45.65379 -67.73574 14317 ft 371 kts
2026-05-09 07:10 -45.62777 -67.73508 15090 ft 379 kts
2026-05-09 07:10 -45.60166 -67.73450 15989 ft 382 kts
2026-05-09 07:10 -45.57511 -67.73396 16908 ft 384 kts
2026-05-09 07:10 -45.54824 -67.73341 17699 ft 389 kts
2026-05-09 07:11 -45.52103 -67.73288 18396 ft 397 kts
2026-05-09 07:11 -45.49324 -67.73231 19085 ft 404 kts
2026-05-09 07:11 -45.46485 -67.73177 19803 ft 410 kts
2026-05-09 07:11 -45.43620 -67.73119 20469 ft 416 kts
2026-05-09 07:12 -45.40732 -67.73062 21137 ft 421 kts
2026-05-09 07:12 -45.37774 -67.73004 21766 ft 427 kts
2026-05-09 07:12 -45.34808 -67.72945 22319 ft 434 kts
2026-05-09 07:12 -45.31755 -67.72885 22894 ft 440 kts
2026-05-09 07:13 -45.28661 -67.72825 23493 ft 445 kts
2026-05-09 07:13 -45.25565 -67.72763 24119 ft 449 kts
2026-05-09 07:13 -45.22436 -67.72703 24702 ft 454 kts
2026-05-09 07:13 -45.19253 -67.72638 25310 ft 459 kts
2026-05-09 07:14 -45.16045 -67.72576 25850 ft 465 kts
2026-05-09 07:14 -45.12809 -67.72512 26425 ft 470 kts
2026-05-09 07:14 -45.09532 -67.72447 27010 ft 474 kts
2026-05-09 07:14 -45.06206 -67.72383 27565 ft 479 kts
2026-05-09 07:15 -45.02848 -67.72318 28053 ft 485 kts
2026-05-09 07:15 -44.99509 -67.72253 28586 ft 490 kts
2026-05-09 07:15 -44.96080 -67.72186 29093 ft 495 kts
2026-05-09 07:15 -44.92622 -67.72118 29613 ft 499 kts
2026-05-09 07:16 -44.89146 -67.72082 30091 ft 504 kts 357°
2026-05-09 07:16 -44.85618 -67.72458 30508 ft 508 kts 354°
2026-05-09 07:16 -44.82098 -67.72897 30892 ft 514 kts 354°
2026-05-09 07:16 -44.78501 -67.73338 31295 ft 520 kts 354°
2026-05-09 07:17 -44.74880 -67.73779 31688 ft 525 kts 354°
2026-05-09 07:17 -44.71227 -67.74225 32078 ft 530 kts 354°
2026-05-09 07:17 -44.67548 -67.74674 32466 ft 535 kts 354°
2026-05-09 07:17 -44.63815 -67.75127 32844 ft 540 kts 353°
2026-05-09 07:18 -44.60068 -67.75583 33256 ft 543 kts 353°
2026-05-09 07:18 -44.56280 -67.76041 33740 ft 545 kts 353°
2026-05-09 07:18 -44.52540 -67.76494 34260 ft 546 kts 354°
2026-05-09 07:18 -44.48746 -67.76954 34845 ft 546 kts 353°
2026-05-09 07:19 -44.45002 -67.77406 35463 ft 545 kts 352°
2026-05-09 07:19 -44.41217 -67.77863 36033 ft 545 kts 353°
2026-05-09 07:19 -44.37436 -67.78316 36642 ft 544 kts 352°
2026-05-09 07:19 -44.33646 -67.78775 37179 ft 545 kts 353°
2026-05-09 07:20 -44.29916 -67.79224 37706 ft 545 kts 353°
2026-05-09 07:20 -44.26109 -67.79680 38200 ft 546 kts 352°
2026-05-09 07:20 -44.22400 -67.80125 38310 ft 538 kts 353°
2026-05-09 07:20 -44.18641 -67.80574 38348 ft 539 kts 352°
2026-05-09 07:21 -44.11073 -67.80369 38365 ft 548 kts 10°
2026-05-09 07:21 -44.03827 -67.77583 38371 ft 539 kts 29°
2026-05-09 07:22 -43.97213 -67.72919 38362 ft 534 kts 32°
2026-05-09 07:22 -43.90461 -67.68505 38377 ft 535 kts 31°
2026-05-09 07:23 -43.83667 -67.64440 38359 ft 540 kts 21°
2026-05-09 07:23 -43.76183 -67.62524 38379 ft 547 kts
2026-05-09 07:24 -43.72394 -67.62565 38372 ft 545 kts 353°
2026-05-09 07:24 -43.68660 -67.63256 38388 ft 546 kts 349°
2026-05-09 07:24 -43.61098 -67.64358 38369 ft 549 kts 353°
2026-05-09 07:25 -43.53536 -67.65282 38373 ft 546 kts 353°
2026-05-09 07:25 -43.45934 -67.66197 38363 ft 545 kts 353°
2026-05-09 07:26 -43.38390 -67.67107 38371 ft 546 kts 354°
2026-05-09 07:26 -43.30879 -67.68011 38383 ft 546 kts 354°
2026-05-09 07:27 -43.23288 -67.68920 38378 ft 545 kts 354°
2026-05-09 07:27 -43.15757 -67.69818 38386 ft 548 kts 353°
2026-05-09 07:28 -43.08174 -67.70724 38382 ft 548 kts 354°
2026-05-09 07:28 -43.00608 -67.71622 38378 ft 547 kts 354°
2026-05-09 07:29 -42.93018 -67.72522 38365 ft 548 kts 354°
2026-05-09 07:29 -42.85405 -67.73422 38320 ft 546 kts 354°
2026-05-09 07:30 -42.77815 -67.74320 38303 ft 547 kts 355°
2026-05-09 07:30 -42.70236 -67.75211 38289 ft 547 kts 354°
2026-05-09 07:31 -42.62638 -67.76103 38271 ft 549 kts 354°
2026-05-09 07:31 -42.55081 -67.76990 38261 ft 549 kts 355°
2026-05-09 07:32 -42.47474 -67.77877 38270 ft 549 kts 354°
2026-05-09 07:32 -42.39907 -67.78759 38280 ft 547 kts 355°
2026-05-09 07:33 -42.28536 -67.80130 38268 ft 548 kts 355°
2026-05-09 07:34 -42.20918 -67.81057 38272 ft 548 kts 355°
2026-05-09 07:34 -42.13338 -67.81973 38282 ft 549 kts 354°
2026-05-09 07:35 -42.05744 -67.82891 38282 ft 547 kts 354°
2026-05-09 07:35 -41.98159 -67.83806 38271 ft 549 kts 355°
2026-05-09 07:36 -41.90548 -67.84723 38278 ft 549 kts 354°
2026-05-09 07:36 -41.82930 -67.85636 38239 ft 548 kts 354°
2026-05-09 07:37 -41.75251 -67.86558 38252 ft 553 kts 355°
2026-05-09 07:37 -41.67633 -67.87466 38274 ft 552 kts 355°
2026-05-09 07:38 -41.59963 -67.88382 38278 ft 555 kts 355°
2026-05-09 07:38 -41.52285 -67.89294 38271 ft 556 kts 355°
2026-05-09 07:39 -41.44565 -67.90207 38274 ft 557 kts 355°
2026-05-09 07:39 -41.36885 -67.91114 38288 ft 555 kts 356°
2026-05-09 07:40 -41.29187 -67.92020 38290 ft 557 kts 355°
2026-05-09 07:40 -41.21446 -67.92928 38293 ft 558 kts 355°
2026-05-09 07:41 -41.13778 -67.93830 38302 ft 558 kts 356°
2026-05-09 07:41 -41.06008 -67.94769 38294 ft 556 kts 355°
2026-05-09 07:42 -40.98295 -67.95728 38308 ft 559 kts 355°
2026-05-09 07:42 -40.90558 -67.96690 38298 ft 559 kts 356°
2026-05-09 07:43 -40.82808 -67.97646 38286 ft 556 kts 356°
2026-05-09 07:43 -40.75059 -67.98603 38285 ft 557 kts 355°
2026-05-09 07:44 -40.67346 -67.99511 38287 ft 557 kts 358°
2026-05-09 07:44 -40.59631 -68.00324 38278 ft 557 kts 356°
2026-05-09 07:45 -40.51937 -68.01143 38284 ft 554 kts 356°
2026-05-09 07:45 -40.44234 -68.01958 38287 ft 554 kts 358°
2026-05-09 07:46 -40.36576 -68.02733 38296 ft 551 kts 359°
2026-05-09 07:46 -40.28926 -68.03416 38298 ft 552 kts 358°
2026-05-09 07:47 -40.21237 -68.04105 38291 ft 553 kts 358°
2026-05-09 07:47 -40.13624 -68.04788 38304 ft 552 kts 359°
2026-05-09 07:48 -40.05973 -68.05469 38326 ft 550 kts 359°
2026-05-09 07:48 -39.98358 -68.06151 38345 ft 549 kts 359°
2026-05-09 07:49 -39.90733 -68.06828 38357 ft 551 kts 359°
2026-05-09 07:49 -39.83070 -68.07506 38331 ft 550 kts 359°
2026-05-09 07:50 -39.75425 -68.08202 38341 ft 548 kts 359°
2026-05-09 07:50 -39.67760 -68.08903 38344 ft 547 kts 359°
2026-05-09 07:51 -39.60139 -68.09597 38340 ft 548 kts 359°
2026-05-09 07:51 -39.52549 -68.10289 38344 ft 546 kts 359°
2026-05-09 07:52 -39.44945 -68.10979 38344 ft 550 kts 359°
2026-05-09 07:52 -39.37358 -68.11668 38350 ft 546 kts 360°
2026-05-09 07:53 -39.29764 -68.12354 38358 ft 548 kts 360°
2026-05-09 07:53 -39.22142 -68.13041 38357 ft 548 kts 359°
2026-05-09 07:54 -39.14515 -68.13727 38366 ft 547 kts 360°
2026-05-09 07:54 -39.06923 -68.14421 38379 ft 548 kts 358°
2026-05-09 07:55 -38.99504 -68.16652 38394 ft 552 kts 338°
2026-05-09 07:55 -38.96024 -68.18733 38393 ft 547 kts 327°
2026-05-09 07:55 -38.92664 -68.21054 38391 ft 549 kts 327°
2026-05-09 07:55 -38.89485 -68.23691 38389 ft 541 kts 316°
2026-05-09 07:56 -38.86636 -68.26856 38358 ft 532 kts 307°
2026-05-09 07:56 -38.84256 -68.30369 38361 ft 522 kts 296°
2026-05-09 07:56 -38.82317 -68.34226 38367 ft 504 kts 286°
2026-05-09 07:56 -38.80886 -68.38283 38364 ft 488 kts 277°
2026-05-09 07:57 -38.79513 -68.42285 38372 ft 504 kts 287°
2026-05-09 07:57 -38.77617 -68.46159 38386 ft 522 kts 297°
2026-05-09 07:57 -38.75326 -68.49798 38374 ft 522 kts 299°
2026-05-09 07:58 -38.70957 -68.57127 38375 ft 516 kts 296°
2026-05-09 07:58 -38.66376 -68.64268 38385 ft 531 kts 308°
2026-05-09 07:59 -38.60359 -68.69987 38383 ft 547 kts 327°
2026-05-09 07:59 -38.56954 -68.72037 38383 ft 550 kts 338°
2026-05-09 07:59 -38.53314 -68.73721 38387 ft 550 kts 336°
2026-05-09 08:00 -38.46307 -68.77490 38392 ft 548 kts 335°
2026-05-09 08:00 -38.39310 -68.81359 38398 ft 548 kts 334°
2026-05-09 08:01 -38.32329 -68.85217 38401 ft 546 kts 334°
2026-05-09 08:01 -38.25359 -68.89061 38410 ft 547 kts 334°
2026-05-09 08:02 -38.18368 -68.92909 38423 ft 549 kts 334°
2026-05-09 08:02 -38.11384 -68.96746 38426 ft 547 kts 334°
2026-05-09 08:03 -38.04417 -69.00562 38432 ft 546 kts 334°
2026-05-09 08:03 -37.97411 -69.04394 38436 ft 546 kts 334°
2026-05-09 08:04 -37.90433 -69.08203 38411 ft 547 kts 334°
2026-05-09 08:04 -37.83431 -69.12016 38355 ft 546 kts 334°
2026-05-09 08:05 -37.76470 -69.15798 38336 ft 547 kts 333°
2026-05-09 08:05 -37.69513 -69.19566 38351 ft 546 kts 333°
2026-05-09 08:06 -37.62528 -69.23345 38366 ft 548 kts 334°
2026-05-09 08:06 -37.55530 -69.27122 38376 ft 547 kts 334°
2026-05-09 08:07 -37.48569 -69.30870 38381 ft 545 kts 334°
2026-05-09 08:07 -37.41594 -69.34618 38386 ft 545 kts 334°
2026-05-09 08:08 -37.34592 -69.38375 38398 ft 544 kts 334°
2026-05-09 08:08 -37.27615 -69.42110 38420 ft 544 kts 334°
2026-05-09 08:09 -37.20665 -69.45824 38426 ft 546 kts 334°
2026-05-09 08:09 -37.13683 -69.49546 38430 ft 542 kts 333°
2026-05-09 08:10 -37.06718 -69.53253 38431 ft 542 kts 333°
2026-05-09 08:10 -36.99767 -69.56946 38426 ft 543 kts 334°
2026-05-09 08:11 -36.92848 -69.60613 38427 ft 542 kts 333°
2026-05-09 08:11 -36.85881 -69.64300 38392 ft 543 kts 334°
2026-05-09 08:12 -36.75373 -69.69843 38410 ft 541 kts 334°
2026-05-09 08:12 -36.68459 -69.73484 38410 ft 543 kts 334°
2026-05-09 08:13 -36.61510 -69.77135 38395 ft 543 kts 333°
2026-05-09 08:13 -36.54568 -69.80775 38362 ft 541 kts 334°
2026-05-09 08:14 -36.47628 -69.84407 38289 ft 541 kts 334°
2026-05-09 08:14 -36.40639 -69.88060 38270 ft 543 kts 334°
2026-05-09 08:15 -36.33653 -69.91701 38283 ft 542 kts 333°
2026-05-09 08:15 -36.26739 -69.95301 38299 ft 543 kts 334°
2026-05-09 08:16 -36.19762 -69.98924 38314 ft 540 kts 334°
2026-05-09 08:16 -36.12817 -70.02525 38309 ft 541 kts 334°
2026-05-09 08:17 -36.05892 -70.06108 38320 ft 539 kts 334°
2026-05-09 08:17 -35.98935 -70.09701 38317 ft 540 kts 334°
2026-05-09 08:18 -35.91997 -70.13277 38334 ft 540 kts 333°
2026-05-09 08:18 -35.85009 -70.16875 38299 ft 541 kts 333°
2026-05-09 08:19 -35.78080 -70.20430 38278 ft 538 kts 333°
2026-05-09 08:19 -35.71166 -70.23975 38281 ft 539 kts 333°
2026-05-09 08:20 -35.64251 -70.27512 38298 ft 538 kts 333°
2026-05-09 08:20 -35.57320 -70.31052 38319 ft 539 kts 333°
2026-05-09 08:21 -35.50397 -70.34580 38302 ft 536 kts 333°
2026-05-09 08:21 -35.43481 -70.38097 38297 ft 536 kts 332°
2026-05-09 08:22 -35.36596 -70.41592 38289 ft 537 kts 333°
2026-05-09 08:22 -35.29688 -70.45100 38277 ft 534 kts 330°
2026-05-09 08:23 -35.23491 -70.49735 38295 ft 516 kts 311°
2026-05-09 08:23 -35.20925 -70.52747 38280 ft 503 kts 302°
2026-05-09 08:23 -35.18515 -70.55834 38287 ft 499 kts 299°
2026-05-09 08:24 -35.16468 -70.59187 38297 ft 486 kts 289°
2026-05-09 08:24 -35.14908 -70.62782 38292 ft 471 kts 279°
2026-05-09 08:24 -35.13873 -70.66472 38262 ft 449 kts 270°
2026-05-09 08:24 -35.13221 -70.70152 38279 ft 451 kts 271°
2026-05-09 08:25 -35.12241 -70.73873 38250 ft 465 kts 277°
2026-05-09 08:25 -35.11098 -70.77573 38218 ft 466 kts 278°
2026-05-09 08:25 -35.08740 -70.84912 38220 ft 466 kts 279°
2026-05-09 08:26 -35.06197 -70.92219 38125 ft 475 kts 287°
2026-05-09 08:26 -35.02160 -70.98653 38089 ft 485 kts 308°
2026-05-09 08:27 -34.97161 -71.04206 38091 ft 482 kts 307°
2026-05-09 08:27 -34.94734 -71.06974 37781 ft 486 kts 307°
2026-05-09 08:27 -34.92258 -71.09804 37270 ft 488 kts 307°
2026-05-09 08:28 -34.89801 -71.12611 36712 ft 485 kts 307°
2026-05-09 08:28 -34.87309 -71.15456 36162 ft 481 kts 307°
2026-05-09 08:28 -34.84878 -71.18233 35635 ft 484 kts 307°
2026-05-09 08:28 -34.82441 -71.21011 35094 ft 485 kts 307°
2026-05-09 08:29 -34.79931 -71.23871 34558 ft 488 kts 307°
2026-05-09 08:29 -34.77471 -71.26672 34021 ft 492 kts 307°
2026-05-09 08:29 -34.74950 -71.29527 33465 ft 493 kts 309°
2026-05-09 08:29 -34.72208 -71.32079 32930 ft 502 kts 319°
2026-05-09 08:30 -34.69135 -71.34135 32386 ft 511 kts 330°
2026-05-09 08:30 -34.65763 -71.35649 31921 ft 518 kts 340°
2026-05-09 08:30 -34.62223 -71.36574 31227 ft 529 kts 348°
2026-05-09 08:30 -34.58549 -71.37031 30279 ft 528 kts 358°
2026-05-09 08:31 -34.54927 -71.36855 29712 ft 521 kts
2026-05-09 08:31 -34.51377 -71.36045 29166 ft 520 kts 18°
2026-05-09 08:31 -34.47945 -71.34610 28596 ft 520 kts 28°
2026-05-09 08:31 -34.44752 -71.32602 28016 ft 511 kts 38°
2026-05-09 08:32 -34.41896 -71.30132 27469 ft 503 kts 44°
2026-05-09 08:32 -34.38972 -71.27849 26928 ft 507 kts 34°
2026-05-09 08:32 -34.32412 -71.24708 25807 ft 502 kts 26°
2026-05-09 08:33 -34.29165 -71.23135 25253 ft 500 kts 26°
2026-05-09 08:33 -34.25945 -71.21566 24701 ft 493 kts 27°
2026-05-09 08:33 -34.22805 -71.20032 24159 ft 489 kts 25°
2026-05-09 08:33 -34.19658 -71.18495 23631 ft 489 kts 26°
2026-05-09 08:34 -34.16502 -71.16954 23086 ft 484 kts 25°
2026-05-09 08:34 -34.13414 -71.15450 22557 ft 479 kts 26°
2026-05-09 08:34 -34.10329 -71.13947 22028 ft 477 kts 25°
2026-05-09 08:34 -34.07258 -71.12452 21516 ft 474 kts 26°
2026-05-09 08:35 -34.04194 -71.10963 20972 ft 467 kts 25°
2026-05-09 08:35 -34.01218 -71.09516 20479 ft 466 kts 26°
2026-05-09 08:35 -33.98185 -71.08044 19942 ft 461 kts 26°
2026-05-09 08:35 -33.95240 -71.06613 19485 ft 459 kts 26°
2026-05-09 08:36 -33.92278 -71.05176 18978 ft 456 kts 25°
2026-05-09 08:36 -33.89327 -71.03748 18478 ft 451 kts 26°
2026-05-09 08:36 -33.86422 -71.02341 17931 ft 448 kts 26°
2026-05-09 08:36 -33.83509 -71.00932 17452 ft 440 kts 26°
2026-05-09 08:37 -33.80709 -70.99578 16973 ft 430 kts 26°
2026-05-09 08:37 -33.77965 -70.98252 16495 ft 418 kts 26°
2026-05-09 08:37 -33.75286 -70.96959 16031 ft 405 kts 25°
2026-05-09 08:37 -33.72725 -70.95723 15592 ft 392 kts 26°
2026-05-09 08:38 -33.70222 -70.94517 15198 ft 378 kts 25°
2026-05-09 08:38 -33.67805 -70.93350 14818 ft 370 kts 25°
2026-05-09 08:38 -33.65449 -70.92216 14381 ft 361 kts 25°
2026-05-09 08:38 -33.63154 -70.91111 13972 ft 349 kts 25°
2026-05-09 08:39 -33.60923 -70.90038 13611 ft 337 kts 25°
2026-05-09 08:39 -33.58767 -70.89000 13242 ft 334 kts 24°
2026-05-09 08:39 -33.56615 -70.87923 12870 ft 331 kts 30°
2026-05-09 08:39 -33.54652 -70.86520 12505 ft 331 kts 33°
2026-05-09 08:40 -33.52702 -70.85081 12079 ft 325 kts 33°
2026-05-09 08:40 -33.50795 -70.83677 11720 ft 320 kts 33°
2026-05-09 08:40 -33.48917 -70.82295 11316 ft 310 kts 32°
2026-05-09 08:40 -33.47085 -70.80949 10963 ft 302 kts 32°
2026-05-09 08:41 -33.45330 -70.79658 10640 ft 292 kts 32°
2026-05-09 08:41 -33.43620 -70.78404 10353 ft 283 kts 32°
2026-05-09 08:41 -33.41980 -70.77200 10051 ft 271 kts 31°
2026-05-09 08:41 -33.40389 -70.76032 9744 ft 261 kts 31°
2026-05-09 08:42 -33.38870 -70.74919 9454 ft 253 kts 32°
2026-05-09 08:42 -33.37379 -70.73826 9190 ft 246 kts 31°
2026-05-09 08:42 -33.35929 -70.72764 8919 ft 246 kts 32°
2026-05-09 08:42 -33.34456 -70.71686 8661 ft 248 kts 32°
2026-05-09 08:43 -33.32998 -70.70618 8364 ft 247 kts 32°
2026-05-09 08:43 -33.31522 -70.69558 8117 ft 248 kts 26°
2026-05-09 08:43 -33.29827 -70.69215 7911 ft 250 kts 358°
2026-05-09 08:43 -33.28086 -70.69411 7605 ft 252 kts 356°
2026-05-09 08:44 -33.26346 -70.69618 7247 ft 250 kts 356°
2026-05-09 08:44 -33.24598 -70.69829 6970 ft 248 kts 356°
2026-05-09 08:44 -33.22886 -70.70036 6730 ft 248 kts 356°
2026-05-09 08:44 -33.21152 -70.70245 6462 ft 250 kts 355°
2026-05-09 08:45 -33.19531 -70.70876 6405 ft 251 kts 324°
2026-05-09 08:45 -33.18518 -70.72574 6444 ft 256 kts 287°
2026-05-09 08:45 -33.18339 -70.74723 6196 ft 263 kts 271°
2026-05-09 08:45 -33.18328 -70.76904 5818 ft 262 kts 271°
2026-05-09 08:46 -33.18314 -70.79049 5438 ft 260 kts 271°
2026-05-09 08:46 -33.18351 -70.81193 5206 ft 249 kts 258°
2026-05-09 08:46 -33.19143 -70.82880 5206 ft 228 kts 217°
2026-05-09 08:46 -33.20508 -70.83460 5265 ft 200 kts 174°
2026-05-09 08:47 -33.21689 -70.82918 5266 ft 165 kts 146°
2026-05-09 08:47 -33.22615 -70.82325 5160 ft 143 kts 152°
2026-05-09 08:47 -33.23510 -70.81907 4842 ft 133 kts 159°
2026-05-09 08:47 -33.24363 -70.81508 4439 ft 131 kts 154°
2026-05-09 08:48 -33.25211 -70.81084 3983 ft 133 kts 160°
2026-05-09 08:48 -33.26098 -70.80962 3734 ft 122 kts 174°
2026-05-09 08:48 -33.26931 -70.80915 3567 ft 119 kts 173°
2026-05-09 08:48 -33.27758 -70.80869 3439 ft 119 kts 174°
2026-05-09 08:49 -33.28600 -70.80823 3281 ft 120 kts 173°
2026-05-09 08:49 -33.29431 -70.80778 3122 ft 119 kts 175°
2026-05-09 08:49 -33.30256 -70.80733 2954 ft 118 kts 174°
2026-05-09 08:49 -33.31089 -70.80669 2779 ft 118 kts 175°
2026-05-09 08:50 -33.31906 -70.80609 2629 ft 116 kts 175°
2026-05-09 08:50 -33.32716 -70.80566 2471 ft 116 kts 178°
2026-05-09 08:50 -33.33538 -70.80540 2292 ft 116 kts 176°
2026-05-09 08:50 -33.34344 -70.80493 2150 ft 117 kts 176°
2026-05-09 08:51 -33.35152 -70.80455 1988 ft 115 kts 178°
2026-05-09 08:51 -33.35947 -70.80423 1840 ft 116 kts 179°
2026-05-09 08:51 -33.36754 -70.80393 1679 ft 115 kts 177°
2026-05-09 08:51 -33.37554 -70.80349 1562 ft 110 kts 177°
2026-05-09 08:52 -33.38197 -70.80314 1561 ft 68 kts 178°
2026-05-09 08:52 -33.38514 -70.80296 1561 ft 29 kts 178°
2026-05-09 08:52 -33.38723 -70.80286 1561 ft 30 kts 178°
2026-05-09 08:52 -33.38936 -70.80277 1561 ft 28 kts 178°
2026-05-09 08:53 -33.39062 -70.80267 1561 ft 17 kts 175°
2026-05-09 08:53 -33.39185 -70.80254 1561 ft 18 kts 168°
2026-05-09 08:53 -33.39312 -70.80209 1561 ft 19 kts 155°
2026-05-09 08:53 -33.39408 -70.80138 1561 ft 11 kts 146°
2026-05-09 08:54 -33.39423 -70.80063 1561 ft 10 kts 42°
2026-05-09 08:54 -33.39357 -70.80027 1561 ft 7 kts 48°
2026-05-09 08:54 -33.39348 -70.80006 1561 ft 0 kts 71°
2026-05-09 08:54 -33.39345 -70.79996 1561 ft 2 kts 73°
2026-05-09 08:55 -33.39334 -70.79968 1561 ft 4 kts 51°
2026-05-09 08:55 -33.39301 -70.79950 1561 ft 6 kts
2026-05-09 08:55 -33.39253 -70.79953 1561 ft 7 kts 356°
2026-05-09 08:55 -33.39192 -70.79957 1561 ft 9 kts 358°
2026-05-09 08:56 -33.39120 -70.79960 1561 ft 11 kts 358°
2026-05-09 08:56 -33.39036 -70.79964 1561 ft 12 kts 357°
2026-05-09 08:56 -33.38940 -70.79971 1561 ft 14 kts 357°
2026-05-09 08:56 -33.38834 -70.79975 1561 ft 16 kts 358°
2026-05-09 08:57 -33.38723 -70.79982 1561 ft 15 kts 356°
2026-05-09 08:57 -33.38665 -70.79976 1561 ft 3 kts 34°
2026-05-09 08:57 -33.38649 -70.79949 1561 ft 4 kts 84°
2026-05-09 08:57 -33.38651 -70.79903 1561 ft 6 kts 106°
2026-05-09 08:58 -33.38684 -70.79879 1561 ft 5 kts 176°
2026-05-09 08:58 -33.38712 -70.79876 1561 ft 2 kts 176°
2026-05-09 08:58 -33.38720 -70.79876 1561 ft 0 kts 176°